Regional Weather Roundup
Issued by NWS

Home | Current Version | Previous Version | Graphics & Text | Print | Product List | Glossary On
Versions: 1 2 3 4 5 6 7 8 9 10 11 12 13 14 15 16 17 18 19 20 21 22 23 24 25 26 27 28 29 30 31 32 33 34 35 36 37 38 39 40 41 42 43 44 45 46 47 48 49 50
000
ASUS43 KFSD 231610
RWRSD

WEATHER ROUNDUP FOR SOUTH DAKOTA
NATIONAL WEATHER SERVICE SIOUX FALLS SD
1000 AM CST MON JAN 23 2017

NOTE: "FAIR" INDICATES FEW OR NO CLOUDS BELOW 12,000 FEET WITH NO
SIGNIFICANT WEATHER AND/OR OBSTRUCTIONS TO VISIBILITY.


SDZ001>005-009-010-012>017-231700-
NORTHWEST AND NORTH CENTRAL SOUTH DAKOTA

CITY           SKY/WX    TMP DP  RH WIND       PRES   REMARKS
BUFFALO          N/A     22  17  81 E6        29.61F WCI  14
FAITH            N/A     26  23  88 E13       29.71S WCI  15
MOBRIDGE       CLOUDY    28  23  81 E7        29.78F WCI  21
$$

SDZ012>016-024>037-041>051-057-063-072>074-231700-
SOUTHWEST AND SOUTH CENTRAL SOUTH DAKOTA

CITY           SKY/WX    TMP DP  RH WIND       PRES   REMARKS
RAPID CTY ARPT CLOUDY    20  19  96 CALM      29.66S
PIERRE         CLOUDY    26  23  88 SE10      29.80R WCI  16
CUSTER         CLOUDY    28  23  81 W5        29.57S WCI  23
ELLSWORTH AFB  CLOUDY    21  21 100 CALM      29.64F
PHILIP         CLOUDY    24  23  96 E12       29.74S FOG     WCI  13
PINE RIDGE     CLOUDY    34  32  92 CALM      29.65F
SPEARFISH      CLOUDY    18  18 100 W5        29.62S FOG     WCI  11
WINNER         CLOUDY    27  25  92 SE12      29.80S WCI  17
$$

SDZ004>011-016>023-039-040-231700-
NORTHEAST SOUTH DAKOTA

CITY           SKY/WX    TMP DP  RH WIND       PRES   REMARKS
ABERDEEN       CLOUDY    30  24  78 W3        29.85F
WATERTOWN      CLOUDY    28  26  92 W8        29.83R WCI  20
BROOKINGS      CLOUDY    29  26  89 NW7       29.83F WCI  22
SISSETON         N/A     32  27  81 NW9       29.84R WCI  24
$$

SDZ017-020-022-023-036>040-048>070-231700-
SOUTHEAST SOUTH DAKOTA

CITY           SKY/WX    TMP DP  RH WIND       PRES   REMARKS
SIOUX FALLS    CLOUDY    30  27  88 W7        29.87S WCI  23
HURON          CLOUDY    30  26  85 CALM      29.87S
CHAMBERLAIN    CLOUDY    30  28  91 SE8       29.84S WCI  23
MITCHELL       CLOUDY    31  26  82 E6        29.87F WCI  25
YANKTON        CLOUDY    30  25  80 CALM      29.87S
$$

ABBREVIATIONS USED IN REMARKS
   TC - TEMPERATURE IN CELSIUS
  WCI - WIND CHILL INDEX
   HX - HEAT INDEX
  VSB - VISIBILITY





USA.gov is the U.S. government's official web portal to all federal, state and local government web resources and services.